Location: Lake Zurich
(42.1970°N, 88.0930°W)
Time: 13:46:50
(UTC-05:00)

Daily predictions for brighter satellites

Satellite Brightness Start Highest point End
(mag) Time Altitude Azimuth Time Altitude Azimuth Time Altitude Azimuth
SL-16 R/B 3.8 20:38:45 10° N 20:43:02 21° NE 20:47:17 10° E
Cosmos 371 Rocket 3.3 20:41:44 10° SSW 20:46:33 88° ESE 20:51:24 10° NNE
Cosmos 2278 4.3 20:41:17 10° NNW 20:46:52 60° WSW 20:52:25 10° S
USA 186 2.7 20:47:11 10° S 20:50:09 48° W 20:53:20 10° NNW
Cosmos 2151 Rocket 3.8 20:46:43 10° N 20:51:12 78° W 20:55:37 10° S
Cosmos 1459 Rocket 4.2 20:46:48 10° SSW 20:52:50 73° W 20:58:55 10° N
Cosmos 724 4.5 20:47:18 10° SW 20:53:04 80° WNW 20:58:55 10° NNE
ARGOS 4.0 20:49:52 10° SE 20:54:42 35° ENE 20:59:35 10° N
GPS 2-04 Rocket1 3.8 20:52:12 10° WSW 20:55:59 32° S 20:59:43 10° ESE
Cosmos 2360 4.3 20:50:29 10° NNW 20:56:12 70° ENE 21:01:53 10° SSE
CENTAUR R/B 4.1 20:56:02 10° ESE 20:57:55 11° ESE 20:59:53 10° E
Lacrosse 4 Rocket 4.4 20:56:29 10° W 20:57:59 12° WSW 20:59:30 10° WSW
Cosmos 2061 Rocket 4.2 20:52:19 10° S 20:58:43 80° W 21:05:06 10° N
Cosmos 332 Rocket 4.3 20:55:32 10° SSW 21:00:17 65° WNW 21:05:06 10° NNE
Okean 3 3.5 20:57:55 10° S 21:02:13 81° E 21:06:31 10° N
ATLAS 3B R/B 2.8 20:59:34 10° SSW 21:06:43 69° ESE 21:13:37 10° NE
Cosmos 1300 Rocket 3.8 21:03:04 10° NNW 21:07:27 74° W 21:11:46 10° S
Cosmos 1939 Rocket 4.3 21:07:26 10° SSW 21:11:15 38° W 21:15:07 10° NNW
Okean 1 3.3 21:10:33 10° S 21:14:33 66° E 21:18:36 10° NNE
Cosmos 44 Rocket 4.2 21:09:54 10° NW 21:14:54 49° WSW 21:19:54 10° S
Spot 2 Rocket 3.8 21:12:53 10° S 21:17:53 68° WSW 21:22:56 10° NNW
Cosmos 2016 Rocket 4.4 21:13:56 10° SSW 21:19:58 65° W 21:26:05 10° N
Cosmos 1697 Rocket 3.7 21:14:58 10° NW 21:20:19 44° WSW 21:25:37 10° S
Tsikada Rocket 4.1 21:15:11 10° N 21:21:38 86° E 21:28:03 10° S
Lacrosse 5 rocket 4.0 21:20:10 10° NNW 21:22:38 14° NNE 21:25:01 10° NE
Terra 3.9 21:20:40 10° E 21:22:45 13° ENE 21:24:51 10° NE
Shenzhou-11 Module 1.8 21:21:14 10° W 21:24:13 88° N 21:26:59 12° E
Cosmos 1937 Rocket 4.4 21:19:51 10° N 21:24:29 33° ENE 21:27:55 16° ESE
Cosmos 1500 4.3 21:21:04 10° NNW 21:24:45 44° W 21:28:25 10° SSW
Cosmos 468 Rocket 4.3 21:20:15 10° S 21:25:16 46° ESE 21:30:17 10° NNE
USA 245 4.3 21:25:00 18° ESE 21:26:40 27° ENE 21:29:58 10° N
Meteor 1-18 Rocket 4.4 21:21:19 10° S 21:27:08 86° W 21:33:06 10° N
ISS -3.8 21:25:29 10° SW 21:28:41 55° SE 21:31:54 10° ENE
Cosmos 2360 Rocket 3.9 21:24:55 10° N 21:29:04 21° NE 21:33:03 11° E
Cosmos 1725 Rocket 4.2 21:23:24 10° SSW 21:29:33 75° W 21:35:47 10° N
MetOp-B 4.2 21:27:45 15° SSE 21:32:10 64° ENE 21:37:28 10° N
Cosmos 1980 Rocket 2.6 21:26:38 10° NNW 21:32:13 62° WSW 21:37:31 11° S
SL-08 RB Rocket 3.9 21:29:45 17° SSE 21:33:03 57° ENE 21:37:31 10° N
Cosmos 1570 Rocket 4.0 21:28:23 10° SSW 21:33:42 80° ESE 21:39:05 10° NNE
USA 238 DEB 4.1 21:29:07 10° SW 21:35:57 71° NW 21:42:55 10° NNE
USA 238 4.0 21:29:13 10° SW 21:36:03 71° NW 21:43:02 10° NNE
Cosmos 1763 Rocket 4.1 21:34:07 13° SSE 21:38:18 38° ESE 21:43:10 10° NE
Cosmos 1666 2.6 21:35:58 10° N 21:39:52 82° E 21:42:32 19° S
Cosmos 841 Rocket 4.5 21:37:55 20° SE 21:40:14 27° E 21:44:38 10° NE
Cosmos 1743 2.6 21:37:28 10° N 21:41:20 78° E 21:43:47 21° SSE
SPOT 1/Viking Rocket 4.3 21:40:44 20° SE 21:43:47 38° ENE 21:48:31 10° N
H-2A R/B 1.9 21:44:12 19° SSE 21:47:47 81° ENE 21:52:48 10° NNW
Cosmos 304 Rocket 4.2 21:43:43 10° SSW 21:48:29 65° WNW 21:53:18 10° NNE
Abrixas rocket 2.8 21:45:49 10° SSW 21:48:33 34° SSE 21:48:33 34° SSE
DMSP B5D2-2 4.5 21:43:48 10° NNE 21:48:51 44° E 21:52:04 21° SSE
Meteor 2-4 Rocket 3.9 21:45:41 18° SSE 21:49:25 49° E 21:54:43 10° NNE
Helios 1B rocket 3.4 21:48:26 10° NE 21:52:01 27° E 21:52:46 26° ESE
Cosmos 1340 Rocket 3.6 21:51:31 28° SE 21:52:42 34° E 21:56:24 10° NNE
Cosmos 1455 Rocket 3.5 21:50:07 10° N 21:54:18 44° ENE 21:56:06 29° SE
DNEPR-1 R/B 4.2 21:51:47 10° SW 21:55:58 58° NW 22:00:44 10° NNE
Iridium 2 3.6 21:53:45 21° S 21:56:10 86° E 22:00:00 10° N
ATLAS CENTAUR R/B 2.9 21:52:04 10° NW 21:56:13 35° WSW 21:59:25 16° S
Cosmos 2208 Rocket 4.3 21:55:09 10° SSW 22:00:19 68° WNW 22:05:29 10° NNE
deb Kosmos-1763 4.0 21:57:32 15° SSW 22:00:35 87° ESE 22:04:18 10° NNE
Cosmos 1242 Rocket 2.7 21:57:00 10° NNW 22:00:40 69° W 22:02:29 27° S
Cosmos 1898 Rocket 3.5 21:57:04 10° NNW 22:02:23 84° WSW 22:05:31 25° SSE
Cosmos 1356 4.3 22:02:49 31° E 22:02:49 31° E 22:05:55 10° NNE
Cosmos 1975 Rocket 3.3 21:59:35 12° SSW 22:03:35 70° W 22:07:54 10° N
Meteor 1-13 Rocket 4.3 21:58:58 14° S 22:04:04 78° E 22:10:02 10° NNE
USA 234 4.2 21:59:51 10° NE 22:06:07 50° NNW 22:12:23 10° WSW
Tiangong 2 1.8 22:04:27 10° SW 22:06:45 37° SSW 22:06:45 37° SSW
Resurs 01 Rocket 4.3 22:06:33 10° WSW 22:08:45 14° W 22:10:57 10° WNW
NOSS 3-2 (A) 3.8 22:03:58 10° SW 22:09:50 66° NW 22:16:24 10° NNE
Cosmos 1814 Rocket 3.9 22:06:16 17° S 22:10:18 69° ESE 22:15:35 10° NNE
Cosmos 1975 4.3 22:07:18 10° NNW 22:10:58 34° W 22:14:02 13° SSW
ERS-1 Rocket 3.1 22:07:59 24° S 22:11:03 75° WSW 22:16:06 10° NNW
BREEZE M DEB (TANK) 2.9 22:02:13 10° WNW 22:11:45 82° SSW 22:13:13 37° SE
NOSS 3-2 (C) 3.5 22:07:13 10° SW 22:13:08 85° NW 22:19:44 10° NE
Meteor 1-29 3.9 22:10:49 10° NNE 22:13:38 31° E 22:13:38 31° E
BREEZE-M R/B 3.2 22:10:35 10° WSW 22:14:03 45° NNW 22:16:29 10° NE
Meteor 2-20 4.4 22:09:21 10° N 22:15:31 87° W 22:19:21 25° S
Meteor 2-20 Rocket 4.4 22:12:22 10° N 22:18:32 77° E 22:21:48 29° SSE
Cosmos 292 Rocket 3.9 22:16:51 35° SSE 22:18:33 53° ESE 22:23:12 10° NNE
Cosmos 1544 Rocket 3.5 22:16:40 10° N 22:21:07 90° ESE 22:22:46 39° S
Cosmos 2322 Rocket 2.2 22:15:31 10° NNW 22:21:09 78° WSW 22:23:50 32° SSE
Cosmos 1515 3.8 22:21:35 50° SE 22:22:04 55° E 22:25:50 10° NNE
SL-16 R/B 2.4 22:22:00 10° NNW 22:27:38 66° WSW 22:30:19 31° S
Cosmos 2150 Rocket 4.0 22:22:55 10° NNW 22:28:22 84° ENE 22:30:26 39° SSE
Nadezhda 4 Rocket 4.4 22:23:13 10° N 22:29:20 50° ENE 22:31:47 34° SE
Cosmos 990 Rocket 4.2 22:26:11 10° NNW 22:31:20 64° WSW 22:33:34 33° S
SPOT 5 2.8 22:33:17 39° S 22:34:46 67° WSW 22:39:15 10° NNW
Cosmos 1536 Rocket 3.4 22:35:35 48° S 22:36:47 81° E 22:41:15 10° N
Landsat 7 3.8 22:39:40 44° S 22:41:11 79° WSW 22:45:57 10° NNW
SJ 16-02 1.9 22:37:04 10° N 22:41:20 44° ENE 22:42:00 41° E
Helios 1A 3.6 22:40:33 35° SSW 22:41:50 48° W 22:45:52 10° NNW
CZ-2C R/B 3.4 22:41:02 40° ESE 22:42:36 53° ENE 22:47:58 10° N
CENTAUR R/B 2.4 22:42:23 17° SSW 22:47:07 78° ESE 22:53:57 10° NE
Cosmos 2298 Rocket 4.3 22:42:20 10° NNW 22:47:33 59° WSW 22:49:23 38° SSW
Cosmos 2034 Rocket 3.9 22:49:35 32° S 22:52:38 86° W 22:58:48 10° N
Cosmos 2084 4.3 22:54:54 10° SW 22:59:04 48° NW 23:03:02 10° NNE
Terra 1.8 22:58:53 56° S 22:59:51 78° WSW 23:04:38 10° NNW
Shenzhou-11 Module 4.1 22:57:20 10° W 22:58:34 22° W 22:58:34 22° W
Aureole 2 Rocket 3.7 22:57:48 10° NNW 22:59:50 32° WNW 22:59:50 32° WNW
Lacrosse 5 rocket 2.2 22:58:47 10° NW 23:02:53 42° NE 23:03:33 39° ENE
ISS -1.5 23:02:31 10° W 23:05:20 26° NNW 23:08:10 10° NE
CARTOSAT-1 4.0 23:08:56 47° SW 23:09:28 50° W 23:13:41 10° NNW
YAOGAN 11 4.1 23:11:55 65° SW 23:12:18 70° WSW 23:16:48 10° NNW
Spot 4 4.1 23:12:09 52° E 23:12:38 55° ENE 23:17:21 10° N
Cosmos 2360 Rocket 2.3 23:08:00 10° NNW 23:13:36 67° WSW 23:14:49 52° SSW
Cosmos 2219 Rocket 2.9 23:15:06 10° NNW 23:20:24 42° ENE 23:21:44 36° E
CZ-4C R/B 3.4 23:13:31 10° NNW 23:20:30 54° NE 23:24:16 31° ESE
Okean 2 3.8 23:21:30 55° W 23:21:44 56° W 23:25:51 10° N
Cosmos 540 Rocket 3.8 23:21:34 38° SW 23:23:24 61° WNW 23:28:33 10° NNE
Cosmos 1634 Rocket 4.0 23:22:16 53° SSE 23:23:40 69° E 23:29:58 10° NNE
Cosmos 2195 Rocket 4.5 23:17:56 10° N 23:24:03 66° E 23:25:18 53° SE
Cosmos 2333 Rocket 3.0 23:20:58 10° NNW 23:26:22 42° ENE 23:27:45 36° E
Helios 1B rocket 4.4 23:23:48 10° NNW 23:27:11 25° WNW 23:29:08 18° WSW
CZ-2C R/B 2.6 23:22:42 10° NNE 23:28:22 88° ESE 23:29:28 60° S
Cosmos 1606 Rocket 3.8 23:24:29 10° N 23:28:35 58° ENE 23:28:35 58° ENE
COSMOS 2428 2.7 23:24:10 10° NNW 23:29:51 70° ENE 23:30:47 59° ESE
Cosmos 1356 Rocket 3.8 23:31:40 60° W 23:31:42 60° WNW 23:35:57 10° N
COSMOS 2455 4.5 23:37:11 19° E 23:37:11 19° E 23:40:14 10° ENE
Cosmos 1025 Rocket 3.6 23:36:47 48° W 23:37:04 48° WNW 23:41:19 10° N
Cosmos 372 Rocket 4.2 23:36:02 10° NNW 23:41:03 55° WSW 23:41:19 54° WSW
Cosmos 1544 4.1 23:38:44 10° NNW 23:41:28 45° NNW 23:41:28 45° NNW
Iridium 4 Rocket 4.2 23:45:58 44° E 23:46:18 45° E 23:51:48 10° NNE
